Regional Weather Roundup
Issued by NWS Mobile, AL

Home | Current Version | Previous Version | Text Only | Print | Product List | Glossary On
Versions: 1 2 3 4 5 6 7 8 9 10 11 12 13 14 15 16 17 18 19 20 21 22 23 24 25 26 27 28 29 30 31 32 33 34 35 36 37 38 39 40 41 42 43 44 45 46 47 48 49 50
000
ASUS44 KMOB 261712
RWRMOB
REGIONAL WEATHER ROUNDUP
NATIONAL WEATHER SERVICE MOBILE AL
1200 PM CDT MON SEP 26 2016

NOTE: "FAIR" INDICATES FEW OR NO CLOUDS BELOW 12,000 FEET WITH NO
      SIGNIFICANT WEATHER AND/OR OBSTRUCTIONS TO VISIBILITY.

  * THESE STATIONS ARE PART OF THE UNIVERSITY OF SOUTH ALABAMA
    MESONET AND ARE NOT UNDER NWS OR FAA QUALITY CONTROL.

ALZ061>064-261800-
COASTAL ALABAMA

CITY           SKY/WX    TMP DP  RH WIND       PRES   REMARKS
MOBILE REG APT MOSUNNY   86  72  62 CALM      30.02F
BROOKLEY FIELD SUNNY     88  72  58 NE7       30.02F
USA CAMPUS*    NOT AVBL
DOG RIVER*     NOT AVBL


CITY           SKY/WX    TMP DP  RH WIND       PRES   REMARKS
MOUNT VERNON*  NOT AVBL
SARALAND*      NOT AVBL
BAY MINETTE*   NOT AVBL
LOXLEY*        NOT AVBL
ROBERTSDALE*   NOT AVBL
FAIRHOPE*      NOT AVBL
ELBERTA*       NOT AVBL
FOLEY*         NOT AVBL
GRAND BAY*     NOT AVBL
DAUPHIN ISLND* NOT AVBL
BON SCOUR NWR* NOT AVBL
GULF SHORES    PTSUNNY   86  75  69 CALM      30.01S HX  95

$$

ALZ051>060-261800-
INTERIOR SOUTHWEST AND SOUTH CENTRAL ALABAMA

CITY           SKY/WX    TMP DP  RH WIND       PRES   REMARKS
GREENVILLE     NOT AVBL
EVERGREEN      SUNNY     85  71  63 VRB5      30.03F
CASTLEBERRY*   NOT AVBL
ATMORE*        NOT AVBL
DIXIE*         NOT AVBL
ANDALUSIA/OPP  SUNNY     90  70  51 SE6       30.03F HX  95
ANDALUSIA*     NOT AVBL
FLORALA APT    NOT AVBL
FLORALA*       NOT AVBL

$$

FLZ001>006-261800-
WESTERN FLORIDA PANHANDLE

CITY           SKY/WX    TMP DP  RH WIND       PRES   REMARKS
PENSACOLA      MOSUNNY   86  74  67 SE12      30.01R
NAS PENSACOLA  PTSUNNY   85  74  69 E7        30.01R
MILTON         PTSUNNY   86  74  67 S8        30.01F
WHTNG S FIELD  PTSUNNY   89  75  63 E6        30.01F HX  99


CITY           SKY/WX    TMP DP  RH WIND       PRES   REMARKS
WALNUT HILL*   NOT AVBL
JAY*           NOT AVBL
DUKE FIELD     PTSUNNY   81  66  61 S7        30.01F THUNDER
CRESTVIEW      SUNNY     88  68  51 E3        30.03F
VALPARAISO     PTSUNNY   86  61  42 W3        30.01F
DESTIN         CLOUDY    88  75  65 N5        30.02S HX  97

$$

MSZ076-079-261800-
INTERIOR SOUTHEAST MISSISSIPPI

CITY           SKY/WX    TMP DP  RH WIND       PRES   REMARKS
LEAKESVILLE*   NOT AVBL
AGRICOLA*      NOT AVBL

$$

MARINE OBSERVATIONS

STATION/POSITION TIME  TEMP    WIND        PRES    WAVE
                       AIR SEA DIR/SP/G            HT/PER
                 (UTC) (F)     (DEG/KT/KT) (MB)    (FT/S)
PASCAGOULA       1600   85     360/  3/  6 1016.4F
PETIT BOIS ISLND 1600   84     340/  3/  4 1017.2F
GRAND BAY        1545   84     340/  5     1017.0S
KATRINA CUT      1600   83     300/  4     1017.3S
CEDAR POINT      1600   82     120/  3     1016.6S
E DAUPHIN ISLAND 1600   81     340/  3/  4 1016.4R
MIDDLE BAY LIGHT 1600   84     340/  7     1016.3F
USCG MOBILE BAY  1600   81 85  110/  2/  3 1017.1F
STATE DOCKS      1600   87 86              1016.4F
MEAHER PARK      1600   81     250/  5     1016.3F
WEEKS BAY        1500   81                   N/A
FORT MORGAN      1600   83      30/  2/  4 1016.1R
12 S ORANGE BCH  1650   83 86  310/  4/  6 1016.5R   1/ 4
PENSACOLA BAY    1600   82 85  100/  3/  6 1016.6F
64 S DAUPHIN ISL 1600   82 85   30/ 10/ 12 1016.4R
67 S FORT MORGAN 1630   84      30/ 10     1016.6R

$$

SELECTED LOCATIONS ACROSS THE REGION

CITY           SKY/WX    TMP DP  RH WIND       PRES   REMARKS
NEW ORLEANS    MOSUNNY   90  74  59 NE6       30.02F HX  99
GULFPORT       SUNNY     90  69  50 N6        30.00F
PASCAGOULA AP  SUNNY     90  73  57 N8        30.01F HX  98
PASCAGOULA*    NOT AVBL
HATTIESBURG    SUNNY     88  69  53 CALM      30.02F
LAUREL         SUNNY     88  68  51 CALM      30.03F
MERIDIAN       MOSUNNY   91  68  46 VRB6      30.02F HX  95
JACKSON        SUNNY     88  70  55 VRB6      30.04F
MONTGOMERY     SUNNY     89  67  47 VRB6      30.04F
TROY           MOSUNNY   84  71  65 SE8       30.05F
KINSTON*       NOT AVBL
GENEVA*        NOT AVBL
ASHFORD*       NOT AVBL
DOTHAN         MOSUNNY   87  71  58 VRB3      30.07F
PANAMA CITY    MOSUNNY   86  72  62 NW6       30.01F

$$




USA.gov is the U.S. government's official web portal to all federal, state and local government web resources and services.